DHX121 RCTP-RPLL

Flight info

Callsign DHX121
Flight time 1h 36m
Altitude 34000
Route TINHO1C TINHO Q11 POTIB M646 LAO/N0483F350 B462 CAB CAB5R
Aircraft B77L/H-SDE1E2E3FGHIJ2J3J4J5M1RWXY/LB1D1

Departure

Time 2026-05-06 12:35
Airport Taiwan Taoyuan International Airport (RCTP)

Arrival

Time 2026-05-06 14:12
Airport Ninoy Aquino International Airport (RPLL)
Time Latitude Longitude Altitude Speed Heading
2026-05-06 11:52 25.08888 121.24160 120 ft 0 kts 144°
2026-05-06 12:22 25.08889 121.24160 120 ft 0 kts 144°
2026-05-06 12:22 25.08896 121.24153 120 ft 2 kts 138°
2026-05-06 12:22 25.08908 121.24143 120 ft 2 kts 138°
2026-05-06 12:22 25.08919 121.24131 120 ft 2 kts 139°
2026-05-06 12:23 25.08930 121.24121 120 ft 2 kts 139°
2026-05-06 12:23 25.08942 121.24110 120 ft 2 kts 139°
2026-05-06 12:23 25.08953 121.24099 120 ft 2 kts 139°
2026-05-06 12:23 25.08965 121.24088 120 ft 2 kts 139°
2026-05-06 12:24 25.08975 121.24078 120 ft 1 kts 156°
2026-05-06 12:24 25.08986 121.24078 120 ft 1 kts 214°
2026-05-06 12:24 25.08992 121.24083 120 ft 1 kts 230°
2026-05-06 12:24 25.08993 121.24084 120 ft 0 kts 229°
2026-05-06 12:26 25.08992 121.24083 120 ft 0 kts 229°
2026-05-06 12:27 25.08971 121.24057 120 ft 8 kts 229°
2026-05-06 12:27 25.08912 121.23984 120 ft 15 kts 228°
2026-05-06 12:27 25.08838 121.23892 120 ft 15 kts 228°
2026-05-06 12:27 25.08764 121.23801 120 ft 16 kts 229°
2026-05-06 12:28 25.08683 121.23695 120 ft 18 kts 229°
2026-05-06 12:28 25.08600 121.23590 120 ft 17 kts 228°
2026-05-06 12:28 25.08520 121.23489 120 ft 17 kts 230°
2026-05-06 12:28 25.08443 121.23389 120 ft 16 kts 229°
2026-05-06 12:29 25.08366 121.23294 120 ft 16 kts 229°
2026-05-06 12:29 25.08292 121.23200 120 ft 15 kts 229°
2026-05-06 12:29 25.08222 121.23109 120 ft 15 kts 230°
2026-05-06 12:29 25.08151 121.23019 120 ft 15 kts 229°
2026-05-06 12:30 25.08080 121.22930 120 ft 16 kts 229°
2026-05-06 12:30 25.08003 121.22832 120 ft 17 kts 229°
2026-05-06 12:30 25.07921 121.22726 120 ft 18 kts 229°
2026-05-06 12:30 25.07833 121.22613 120 ft 19 kts 229°
2026-05-06 12:31 25.07738 121.22497 120 ft 20 kts 228°
2026-05-06 12:31 25.07640 121.22372 120 ft 21 kts 230°
2026-05-06 12:31 25.07538 121.22241 120 ft 22 kts 229°
2026-05-06 12:31 25.07435 121.22110 120 ft 21 kts 230°
2026-05-06 12:32 25.07338 121.21986 120 ft 20 kts 227°
2026-05-06 12:32 25.07244 121.21870 120 ft 18 kts 227°
2026-05-06 12:32 25.07230 121.21852 120 ft 0 kts 230°
2026-05-06 12:33 25.07220 121.21838 120 ft 5 kts 230°
2026-05-06 12:33 25.07180 121.21787 120 ft 9 kts 232°
2026-05-06 12:33 25.07185 121.21728 120 ft 8 kts 310°
2026-05-06 12:33 25.07228 121.21683 120 ft 8 kts 319°
2026-05-06 12:34 25.07279 121.21648 120 ft 8 kts 346°
2026-05-06 12:34 25.07334 121.21666 120 ft 8 kts 38°
2026-05-06 12:34 25.07390 121.21730 120 ft 24 kts 49°
2026-05-06 12:34 25.07734 121.22166 120 ft 124 kts 49°
2026-05-06 12:35 25.08470 121.23116 301 ft 192 kts 50°
2026-05-06 12:35 25.09385 121.24279 1406 ft 210 kts 50°
2026-05-06 12:35 25.10225 121.25344 2815 ft 185 kts 50°
2026-05-06 12:35 25.11099 121.26457 3312 ft 204 kts 50°
2026-05-06 12:36 25.12065 121.27687 3856 ft 222 kts 50°
2026-05-06 12:36 25.13123 121.29037 4466 ft 241 kts 49°
2026-05-06 12:36 25.14247 121.30495 5127 ft 259 kts 49°
2026-05-06 12:36 25.15446 121.32054 5787 ft 277 kts 49°
2026-05-06 12:37 25.16704 121.33688 6601 ft 288 kts 49°
2026-05-06 12:37 25.17748 121.35562 7493 ft 294 kts 72°
2026-05-06 12:37 25.17944 121.37790 8326 ft 298 kts 101°
2026-05-06 12:37 25.17176 121.39888 9151 ft 299 kts 130°
2026-05-06 12:38 25.15657 121.41436 10020 ft 298 kts 146°
2026-05-06 12:38 25.13961 121.42767 10703 ft 311 kts 147°
2026-05-06 12:38 25.12126 121.44179 11270 ft 328 kts 146°
2026-05-06 12:38 25.10224 121.45641 11820 ft 345 kts 146°
2026-05-06 12:39 25.08201 121.47195 12375 ft 361 kts 146°
2026-05-06 12:39 25.06088 121.48818 12927 ft 377 kts 145°
2026-05-06 12:39 25.03903 121.50497 13467 ft 392 kts 145°
2026-05-06 12:39 25.01640 121.52236 14024 ft 406 kts 145°
2026-05-06 12:40 24.99282 121.54047 14730 ft 414 kts 145°
2026-05-06 12:40 24.96918 121.55861 15547 ft 418 kts 145°
2026-05-06 12:40 24.94507 121.57711 16328 ft 423 kts 145°
2026-05-06 12:40 24.92071 121.59579 17083 ft 428 kts 145°
2026-05-06 12:41 24.89633 121.61448 17810 ft 433 kts 145°
2026-05-06 12:41 24.87133 121.63363 18526 ft 438 kts 145°
2026-05-06 12:41 24.84610 121.65294 19236 ft 443 kts 146°
2026-05-06 12:41 24.82117 121.67202 19937 ft 448 kts 146°
2026-05-06 12:42 24.79524 121.69185 20590 ft 453 kts 146°
2026-05-06 12:42 24.76911 121.71182 21273 ft 458 kts 146°
2026-05-06 12:42 24.74288 121.73186 21959 ft 462 kts 146°
2026-05-06 12:42 24.71639 121.75208 22588 ft 468 kts 146°
2026-05-06 12:43 24.68950 121.77259 23235 ft 472 kts 146°
2026-05-06 12:43 24.66266 121.79307 23856 ft 477 kts 146°
2026-05-06 12:43 24.63483 121.81427 24468 ft 483 kts 146°
2026-05-06 12:43 24.60729 121.83525 25085 ft 488 kts 146°
2026-05-06 12:44 24.57912 121.85669 25715 ft 493 kts 146°
2026-05-06 12:44 24.55048 121.87847 26388 ft 498 kts 146°
2026-05-06 12:44 24.52210 121.90004 27023 ft 503 kts 146°
2026-05-06 12:44 24.49321 121.92198 27636 ft 509 kts 147°
2026-05-06 12:45 24.46379 121.94431 28267 ft 514 kts 147°
2026-05-06 12:45 24.43395 121.96600 28882 ft 518 kts 152°
2026-05-06 12:45 24.36731 121.99548 30372 ft 515 kts 169°
2026-05-06 12:46 24.33247 122.00175 31325 ft 507 kts 178°
2026-05-06 12:46 24.29778 122.00246 32196 ft 499 kts 187°
2026-05-06 12:46 24.26328 121.99779 32937 ft 493 kts 195°
2026-05-06 12:46 24.23038 121.98857 33645 ft 489 kts 200°
2026-05-06 12:47 24.19778 121.97806 33962 ft 492 kts 201°
2026-05-06 12:47 24.13223 121.95672 33972 ft 486 kts 201°
2026-05-06 12:48 24.06688 121.93542 33976 ft 487 kts 201°
2026-05-06 12:48 23.99978 121.91355 33974 ft 507 kts 201°
2026-05-06 12:49 23.93160 121.89139 33975 ft 510 kts 201°
2026-05-06 12:49 23.86391 121.86942 33971 ft 509 kts 201°
2026-05-06 12:50 23.79567 121.84730 33973 ft 509 kts 201°
2026-05-06 12:50 23.72777 121.82530 33976 ft 509 kts 201°
2026-05-06 12:51 23.65954 121.80323 33981 ft 509 kts 201°
2026-05-06 12:51 23.59173 121.78130 33982 ft 509 kts 201°
2026-05-06 12:52 23.52355 121.75922 33984 ft 509 kts 201°
2026-05-06 12:52 23.45579 121.73728 33987 ft 508 kts 201°
2026-05-06 12:53 23.38801 121.71536 33982 ft 509 kts 201°
2026-05-06 12:53 23.32030 121.69353 33983 ft 508 kts 201°
2026-05-06 12:54 23.25231 121.67165 33991 ft 508 kts 201°
2026-05-06 12:54 23.18428 121.64977 33994 ft 508 kts 201°
2026-05-06 12:55 23.11651 121.62799 34001 ft 509 kts 201°
2026-05-06 12:55 23.04864 121.60621 34008 ft 508 kts 201°
2026-05-06 12:56 22.98106 121.58454 34006 ft 508 kts 201°
2026-05-06 12:56 22.91271 121.56268 34004 ft 508 kts 201°
2026-05-06 12:57 22.84475 121.54098 33996 ft 507 kts 200°
2026-05-06 12:57 22.77669 121.51926 33990 ft 508 kts 200°
2026-05-06 12:58 22.70870 121.49759 33988 ft 508 kts 200°
2026-05-06 12:58 22.64190 121.47282 33988 ft 506 kts 206°
2026-05-06 12:59 22.57672 121.44407 33983 ft 505 kts 206°
2026-05-06 12:59 22.51173 121.41542 33984 ft 505 kts 206°
2026-05-06 13:00 22.44663 121.38679 33977 ft 506 kts 206°
2026-05-06 13:00 22.38092 121.35792 33974 ft 505 kts 206°
2026-05-06 13:01 22.31564 121.32929 33976 ft 508 kts 206°
2026-05-06 13:01 22.25034 121.30070 33980 ft 506 kts 206°
2026-05-06 13:02 22.18455 121.27190 33969 ft 507 kts 206°
2026-05-06 13:02 22.11940 121.24342 33967 ft 508 kts 206°
2026-05-06 13:03 22.05419 121.21497 33957 ft 499 kts 206°
2026-05-06 13:03 21.99007 121.18701 33960 ft 495 kts 206°
2026-05-06 13:04 21.92629 121.15910 33951 ft 496 kts 206°
2026-05-06 13:04 21.86232 121.13085 33945 ft 497 kts 205°
2026-05-06 13:05 21.79774 121.10297 33947 ft 496 kts 206°
2026-05-06 13:05 21.73349 121.07516 33946 ft 496 kts 206°
2026-05-06 13:06 21.66947 121.04742 33948 ft 497 kts 206°
2026-05-06 13:06 21.60510 121.01954 33948 ft 497 kts 205°
2026-05-06 13:07 21.54114 120.99184 33951 ft 498 kts 206°
2026-05-06 13:07 21.47670 120.96394 33950 ft 497 kts 205°
2026-05-06 13:08 21.41252 120.93619 33949 ft 497 kts 205°
2026-05-06 13:08 21.34835 120.90846 33947 ft 497 kts 205°
2026-05-06 13:09 21.28393 120.88065 33949 ft 498 kts 205°
2026-05-06 13:09 21.21975 120.85297 33948 ft 498 kts 205°
2026-05-06 13:10 21.15558 120.82532 33948 ft 498 kts 205°
2026-05-06 13:10 21.09105 120.79754 33949 ft 498 kts 205°
2026-05-06 13:11 21.02657 120.76997 33943 ft 499 kts 203°
2026-05-06 13:11 20.95839 120.75507 33951 ft 506 kts 188°
2026-05-06 13:12 20.88796 120.74908 33942 ft 505 kts 187°
2026-05-06 13:12 20.81770 120.74329 33938 ft 506 kts 187°
2026-05-06 13:13 20.74734 120.73749 33939 ft 505 kts 187°
2026-05-06 13:13 20.67749 120.73174 33938 ft 505 kts 187°
2026-05-06 13:14 20.60713 120.72595 33937 ft 504 kts 187°
2026-05-06 13:14 20.53710 120.72019 33935 ft 504 kts 187°
2026-05-06 13:15 20.46729 120.71446 33935 ft 503 kts 187°
2026-05-06 13:15 20.39740 120.70870 33934 ft 504 kts 187°
2026-05-06 13:16 20.32741 120.70297 33934 ft 504 kts 187°
2026-05-06 13:16 20.25720 120.69722 33933 ft 503 kts 187°
2026-05-06 13:17 20.18725 120.69149 33932 ft 503 kts 187°
2026-05-06 13:17 20.11758 120.68579 33931 ft 502 kts 187°
2026-05-06 13:18 20.04789 120.68009 33930 ft 502 kts 187°
2026-05-06 13:18 19.97796 120.67439 33923 ft 503 kts 187°
2026-05-06 13:19 19.90802 120.66868 33927 ft 502 kts 187°
2026-05-06 13:19 19.83854 120.66301 33922 ft 502 kts 187°
2026-05-06 13:20 19.76844 120.65730 33923 ft 503 kts 187°
2026-05-06 13:20 19.69852 120.65161 33921 ft 503 kts 187°
2026-05-06 13:21 19.62892 120.64595 33921 ft 502 kts 187°
2026-05-06 13:21 19.55890 120.64026 33917 ft 503 kts 187°
2026-05-06 13:22 19.48961 120.63464 33916 ft 503 kts 187°
2026-05-06 13:22 19.42761 120.62961 33915 ft 503 kts 187°
2026-05-06 13:23 19.35688 120.62387 33911 ft 503 kts 187°
2026-05-06 13:23 19.28707 120.61822 33913 ft 503 kts 187°
2026-05-06 13:24 19.21709 120.61256 33911 ft 503 kts 187°
2026-05-06 13:24 19.14696 120.60688 33912 ft 504 kts 187°
2026-05-06 13:25 19.07714 120.60124 33911 ft 504 kts 187°
2026-05-06 13:25 19.00667 120.59556 33909 ft 503 kts 186°
2026-05-06 13:26 18.93673 120.58992 33907 ft 504 kts 187°
2026-05-06 13:26 18.86627 120.58424 33905 ft 503 kts 186°
2026-05-06 13:27 18.79625 120.57861 33911 ft 503 kts 186°
2026-05-06 13:27 18.72637 120.57299 33916 ft 502 kts 186°
2026-05-06 13:28 18.65650 120.56737 33924 ft 502 kts 186°
2026-05-06 13:28 18.58663 120.56177 33928 ft 502 kts 186°
2026-05-06 13:29 18.51701 120.55617 33933 ft 501 kts 186°
2026-05-06 13:29 18.44664 120.55053 33931 ft 501 kts 186°
2026-05-06 13:30 18.37723 120.54497 33929 ft 501 kts 186°
2026-05-06 13:30 18.30692 120.53934 33926 ft 501 kts 186°
2026-05-06 13:31 18.23768 120.53381 33926 ft 500 kts 186°
2026-05-06 13:31 18.16791 120.53208 33921 ft 503 kts 175°
2026-05-06 13:32 18.09829 120.54402 33928 ft 504 kts 172°
2026-05-06 13:32 18.02905 120.55695 33935 ft 503 kts 172°
2026-05-06 13:33 17.96026 120.56973 33943 ft 504 kts 172°
2026-05-06 13:33 17.89093 120.58257 33957 ft 503 kts 172°
2026-05-06 13:34 17.82178 120.59534 33966 ft 503 kts 171°
2026-05-06 13:34 17.75303 120.60804 33978 ft 503 kts 171°
2026-05-06 13:35 17.68408 120.62076 33974 ft 503 kts 171°
2026-05-06 13:35 17.61505 120.63350 33982 ft 502 kts 171°
2026-05-06 13:36 17.54596 120.64625 33990 ft 503 kts 171°
2026-05-06 13:36 17.47698 120.65897 33980 ft 503 kts 171°
2026-05-06 13:37 17.40779 120.67172 34005 ft 502 kts 171°
2026-05-06 13:37 17.33907 120.68436 34017 ft 503 kts 171°
2026-05-06 13:38 17.27024 120.69703 34044 ft 502 kts 171°
2026-05-06 13:38 17.20090 120.70983 34067 ft 502 kts 171°
2026-05-06 13:39 17.13193 120.72257 34071 ft 501 kts 171°
2026-05-06 13:39 17.06296 120.73529 34069 ft 502 kts 171°
2026-05-06 13:40 16.99357 120.74809 34082 ft 501 kts 171°
2026-05-06 13:40 16.92448 120.76081 34118 ft 501 kts 171°
2026-05-06 13:41 16.85607 120.77340 34164 ft 499 kts 171°
2026-05-06 13:41 16.78705 120.78610 34222 ft 500 kts 171°
2026-05-06 13:42 16.71843 120.79871 34238 ft 500 kts 171°
2026-05-06 13:42 16.64967 120.81133 34202 ft 499 kts 171°
2026-05-06 13:43 16.58105 120.82393 34163 ft 499 kts 171°
2026-05-06 13:43 16.51285 120.83643 34129 ft 498 kts 171°
2026-05-06 13:44 16.44426 120.84900 34105 ft 498 kts 171°
2026-05-06 13:44 16.37599 120.86150 34103 ft 499 kts 171°
2026-05-06 13:45 16.30710 120.87411 34082 ft 498 kts 171°
2026-05-06 13:45 16.20464 120.89284 34037 ft 498 kts 171°
2026-05-06 13:46 16.13660 120.90527 34022 ft 497 kts 171°
2026-05-06 13:46 16.06792 120.91780 33997 ft 497 kts 171°
2026-05-06 13:47 15.99964 120.93026 33780 ft 486 kts 171°
2026-05-06 13:47 15.96665 120.93627 32924 ft 489 kts 171°
2026-05-06 13:47 15.93217 120.94255 31654 ft 500 kts 171°
2026-05-06 13:48 15.89779 120.94881 30443 ft 509 kts 171°
2026-05-06 13:48 15.86312 120.95513 29861 ft 503 kts 171°
2026-05-06 13:48 15.82863 120.96142 29703 ft 489 kts 171°
2026-05-06 13:48 15.79517 120.96751 29293 ft 481 kts 171°
2026-05-06 13:49 15.76220 120.97351 28747 ft 477 kts 171°
2026-05-06 13:49 15.72951 120.97945 28195 ft 473 kts 171°
2026-05-06 13:49 15.69731 120.98531 27655 ft 469 kts 171°
2026-05-06 13:49 15.66541 120.99110 27142 ft 465 kts 171°
2026-05-06 13:50 15.63373 120.99686 26988 ft 451 kts 171°
2026-05-06 13:50 15.60309 121.00243 26893 ft 438 kts 171°
2026-05-06 13:50 15.57353 121.00780 26747 ft 426 kts 171°
2026-05-06 13:50 15.54447 121.01307 26588 ft 414 kts 171°
2026-05-06 13:51 15.51650 121.01788 26419 ft 403 kts 174°
2026-05-06 13:51 15.48880 121.01863 26263 ft 390 kts 185°
2026-05-06 13:51 15.46229 121.01416 25997 ft 382 kts 196°
2026-05-06 13:51 15.43706 121.00559 25490 ft 381 kts 200°
2026-05-06 13:52 15.41240 120.99624 25011 ft 380 kts 201°
2026-05-06 13:52 15.38745 120.98664 24552 ft 378 kts 201°
2026-05-06 13:52 15.36299 120.97717 24107 ft 376 kts 201°
2026-05-06 13:52 15.33814 120.96750 23657 ft 374 kts 201°
2026-05-06 13:53 15.31389 120.95805 23224 ft 372 kts 201°
2026-05-06 13:53 15.28974 120.94861 22784 ft 370 kts 201°
2026-05-06 13:53 15.26572 120.93922 22346 ft 369 kts 200°
2026-05-06 13:53 15.24152 120.92974 21909 ft 367 kts 200°
2026-05-06 13:54 15.21776 120.92043 21476 ft 366 kts 200°
2026-05-06 13:54 15.19369 120.91100 21031 ft 365 kts 200°
2026-05-06 13:54 15.16997 120.90171 20593 ft 364 kts 200°
2026-05-06 13:54 15.14588 120.89226 20147 ft 363 kts 200°
2026-05-06 13:55 15.12242 120.88308 19714 ft 362 kts 200°
2026-05-06 13:55 15.09869 120.87379 19275 ft 361 kts 200°
2026-05-06 13:55 15.07515 120.86456 18837 ft 361 kts 200°
2026-05-06 13:55 15.05169 120.85538 18397 ft 360 kts 200°
2026-05-06 13:56 15.02825 120.84621 17957 ft 359 kts 200°
2026-05-06 13:56 15.00486 120.83704 17515 ft 359 kts 200°
2026-05-06 13:56 14.98142 120.82787 17082 ft 358 kts 200°
2026-05-06 13:56 14.95825 120.81881 16650 ft 357 kts 200°
2026-05-06 13:57 14.93486 120.80967 16212 ft 356 kts 200°
2026-05-06 13:57 14.91150 120.80055 15762 ft 356 kts 200°
2026-05-06 13:57 14.88846 120.79157 15314 ft 356 kts 200°
2026-05-06 13:57 14.86489 120.78237 14868 ft 355 kts 200°
2026-05-06 13:58 14.84153 120.77326 14427 ft 354 kts 200°
2026-05-06 13:58 14.81831 120.76421 13981 ft 354 kts 200°
2026-05-06 13:58 14.79530 120.75524 13550 ft 352 kts 199°
2026-05-06 13:58 14.77185 120.74610 13114 ft 351 kts 199°
2026-05-06 13:59 14.74902 120.73721 12688 ft 350 kts 199°
2026-05-06 13:59 14.72603 120.72826 12255 ft 349 kts 199°
2026-05-06 13:59 14.70338 120.71943 11828 ft 348 kts 199°
2026-05-06 13:59 14.68051 120.71039 11388 ft 347 kts 199°
2026-05-06 14:00 14.65838 120.70171 10937 ft 337 kts 199°
2026-05-06 14:00 14.63659 120.69314 10659 ft 332 kts 199°
2026-05-06 14:00 14.61532 120.68475 10538 ft 317 kts 199°
2026-05-06 14:00 14.59500 120.67669 10423 ft 307 kts 199°
2026-05-06 14:01 14.57516 120.66880 10084 ft 306 kts 199°
2026-05-06 14:01 14.55503 120.66077 9715 ft 306 kts 199°
2026-05-06 14:01 14.53529 120.65289 9376 ft 305 kts 199°
2026-05-06 14:01 14.51553 120.64499 9078 ft 303 kts 199°
2026-05-06 14:02 14.49595 120.63718 8755 ft 301 kts 199°
2026-05-06 14:02 14.47641 120.62943 8436 ft 300 kts 199°
2026-05-06 14:02 14.45671 120.62167 8101 ft 299 kts 199°
2026-05-06 14:02 14.43726 120.61404 7781 ft 297 kts 199°
2026-05-06 14:03 14.41781 120.60643 7477 ft 295 kts 199°
2026-05-06 14:03 14.39817 120.60115 7112 ft 292 kts 180°
2026-05-06 14:03 14.37847 120.60452 6723 ft 286 kts 153°
2026-05-06 14:03 14.36260 120.61633 6350 ft 279 kts 126°
2026-05-06 14:04 14.35339 120.63347 6022 ft 273 kts 109°
2026-05-06 14:04 14.34673 120.65186 5715 ft 271 kts 108°
2026-05-06 14:04 14.34114 120.67014 5406 ft 268 kts 97°
2026-05-06 14:04 14.33993 120.68929 5093 ft 265 kts 87°
2026-05-06 14:05 14.34378 120.70747 4991 ft 262 kts 69°
2026-05-06 14:05 14.35086 120.72491 4976 ft 264 kts 65°
2026-05-06 14:05 14.35850 120.74195 4973 ft 263 kts 64°
2026-05-06 14:05 14.36654 120.75909 4972 ft 264 kts 63°
2026-05-06 14:06 14.37487 120.77612 4802 ft 268 kts 62°
2026-05-06 14:06 14.38358 120.79318 4465 ft 268 kts 61°
2026-05-06 14:06 14.39232 120.80994 4099 ft 263 kts 61°
2026-05-06 14:06 14.40087 120.82619 3791 ft 252 kts 60°
2026-05-06 14:07 14.40906 120.84164 3477 ft 229 kts 60°
2026-05-06 14:07 14.41634 120.85510 3211 ft 207 kts 59°
2026-05-06 14:07 14.42315 120.86729 2967 ft 185 kts 58°
2026-05-06 14:07 14.42934 120.87811 2748 ft 167 kts 59°
2026-05-06 14:08 14.43503 120.88814 2541 ft 155 kts 59°
2026-05-06 14:08 14.44031 120.89756 2357 ft 149 kts 59°
2026-05-06 14:08 14.44535 120.90655 2164 ft 143 kts 59°
2026-05-06 14:08 14.45027 120.91532 1971 ft 141 kts 59°
2026-05-06 14:09 14.45519 120.92409 1777 ft 140 kts 60°
2026-05-06 14:09 14.46007 120.93282 1584 ft 141 kts 60°
2026-05-06 14:09 14.46492 120.94150 1393 ft 140 kts 60°
2026-05-06 14:09 14.46985 120.95029 1204 ft 141 kts 60°
2026-05-06 14:10 14.47471 120.95898 1015 ft 141 kts 61°
2026-05-06 14:10 14.47972 120.96784 821 ft 142 kts 61°
2026-05-06 14:10 14.48499 120.97652 611 ft 141 kts 59°
2026-05-06 14:10 14.48972 120.98539 411 ft 138 kts 63°
2026-05-06 14:11 14.49455 120.99406 274 ft 143 kts 63°
2026-05-06 14:11 14.49950 121.00311 102 ft 141 kts 63°
2026-05-06 14:11 14.50388 121.01101 88 ft 110 kts 60°
2026-05-06 14:11 14.50676 121.01617 88 ft 57 kts 62°
2026-05-06 14:12 14.50789 121.01807 88 ft 4 kts 60°
2026-05-06 14:12 14.50790 121.01809 88 ft 0 kts 60°
2026-05-06 14:12 14.50798 121.01823 88 ft 3 kts 59°
2026-05-06 14:12 14.50827 121.01879 88 ft 16 kts 61°
2026-05-06 14:13 14.50896 121.02009 88 ft 23 kts 61°
2026-05-06 14:13 14.50982 121.02156 88 ft 23 kts 51°
2026-05-06 14:13 14.51097 121.02265 88 ft 21 kts 42°
2026-05-06 14:13 14.51151 121.02299 88 ft 3 kts 359°
2026-05-06 14:14 14.51179 121.02283 88 ft 6 kts 290°
2026-05-06 14:14 14.51175 121.02226 88 ft 10 kts 238°
2026-05-06 14:14 14.51127 121.02148 88 ft 14 kts 238°
2026-05-06 14:14 14.51070 121.02045 88 ft 18 kts 242°
2026-05-06 14:15 14.51063 121.02031 88 ft 0 kts 242°
2026-05-06 14:15 14.51051 121.02009 88 ft 8 kts 241°
2026-05-06 14:15 14.51002 121.01920 88 ft 19 kts 240°
2026-05-06 14:15 14.50931 121.01794 88 ft 19 kts 241°
2026-05-06 14:16 14.50863 121.01673 88 ft 19 kts 239°
2026-05-06 14:16 14.50799 121.01557 88 ft 18 kts 241°
2026-05-06 14:16 14.50740 121.01446 88 ft 17 kts 241°
2026-05-06 14:16 14.50680 121.01340 88 ft 16 kts 239°
2026-05-06 14:17 14.50648 121.01283 88 ft 0 kts 239°
2026-05-06 14:17 14.50642 121.01273 88 ft 4 kts 239°
2026-05-06 14:17 14.50619 121.01234 88 ft 8 kts 241°
2026-05-06 14:17 14.50594 121.01163 88 ft 10 kts 270°
2026-05-06 14:18 14.50615 121.01124 88 ft 2 kts 298°
2026-05-06 14:18 14.50621 121.01092 88 ft 6 kts 261°
2026-05-06 14:18 14.50605 121.01047 88 ft 5 kts 270°
2026-05-06 14:18 14.50633 121.01022 88 ft 6 kts 330°
2026-05-06 14:19 14.50644 121.01015 88 ft 0 kts 330°